Location: Newark
(45.2500°N, 7.5833°E)
Time: 12:59:40
(UTC+00:00)

deb Explorer IX - Visible Passes

Search period start: 26 January 2020 00:00
Search period end: 05 February 2020 00:00
Orbit: 548 x 1101 km, 38.8° (Epoch: 26 January)

Date Brightness Start Highest point End Pass type
(mag) Time Alt. Az. Time Alt. Az. Time Alt. Az.
26 Jan ? 19:05:30 10° S 19:06:21 12° SSE 19:06:21 12° SSE visible
27 Jan ? 18:43:10 10° S 18:45:34 15° SSE 18:45:34 15° SSE visible
27 Jan ? 20:26:47 10° SW 20:26:56 11° SW 20:26:56 11° SW visible
28 Jan ? 18:20:50 10° S 18:24:21 15° SE 18:24:43 15° SE visible
28 Jan ? 20:04:26 10° SW 20:06:06 18° SW 20:06:06 18° SW visible
29 Jan ? 17:58:34 10° S 18:01:55 15° SE 18:03:50 13° ESE visible
29 Jan ? 19:42:06 10° SW 19:45:12 26° SSW 19:45:12 26° SSW visible
30 Jan ? 17:36:18 10° S 17:39:29 15° SE 17:42:52 10° ESE visible
30 Jan ? 19:19:46 10° SW 19:24:14 33° S 19:24:14 33° S visible
31 Jan ? 17:14:03 10° S 17:17:05 14° SE 17:20:18 10° ESE visible
31 Jan ? 18:57:28 10° SW 19:03:06 36° SSE 19:03:13 36° SSE visible
31 Jan ? 20:43:27 10° WSW 20:44:35 16° WSW 20:44:35 16° WSW visible
01 Feb ? 18:35:10 10° SW 18:40:39 35° SSE 18:42:10 32° SE visible
01 Feb ? 20:21:07 10° WSW 20:23:31 24° WSW 20:23:31 24° WSW visible
02 Feb ? 18:12:54 10° SW 18:18:12 35° SSE 18:21:04 24° ESE visible
02 Feb ? 19:58:47 10° WSW 20:02:25 34° SW 20:02:25 34° SW visible
03 Feb ? 17:50:37 10° SW 17:55:46 34° SSE 17:59:57 17° ESE visible
03 Feb ? 19:36:28 10° WSW 19:41:17 45° SSW 19:41:17 45° SSW visible
04 Feb ? 17:28:22 10° SW 17:33:21 34° SSE 17:38:48 11° E visible
04 Feb ? 19:14:11 10° WSW 19:19:58 49° S 19:20:08 48° S visible
04 Feb ? 21:00:49 10° W 21:01:29 13° W 21:01:29 13° W visible
